Tracking 18852 objects as of 24-Nov-2017
HD Live streaming from Space Station
objects crossing your sky now

FENGYUN 1C DEB

Track FENGYUN 1C DEB now!
10-day predictions


NORAD ID: 31159
Int'l Code: 1999-025BHM
Perigee: 457.5 km
Apogee: 929.1 km
Inclination: 97.7 °
Period: 98.5 minutes
Semi major axis: 7064 km
RCS: 0.0102 m2 (small)
Launch date: May 10, 1999
Source: People's Republic of China (PRC)
Launch site: Taiyaun Space Center, China (TSC)

Note: This is SATELLITE DEBRIS
aabbcc
Your satellite tracking list
Your tracking list is empty




NASA's NSSDC Master Catalog

Two Line Element Set (TLE):
1 31159U 99025BHM 17327.35105787 +.00001956 +00000-0 +17884-3 0  9992
2 31159 097.6906 022.5737 0333779 211.5698 146.5096 14.62168579561583
Source of the keplerian elements: AFSPC